Location: St. Louis
(38.6270°N, 90.1994°W)
Time: 09:40:52
(UTC-06:00)

Vanguard 1 - Pass Details

Date: 03 December 2021
Orbit: 652 x 3830 km, 34.2° (Epoch: 22 January)

Event Time Altitude Azimuth Distance (km) Brightness Sun altitude
Rises 20:25:48 0° 189° (S) 6,253 14.2 -43.5°
Reaches altitude 10° 20:30:52 10° 176° (S) 5,712 13.8 -44.5°
Enters shadow 20:34:48 17° 164° (SSE) 5,451 13.6 -45.3°
